This is the latest recevied weather packets stored in our database for station/object KN1OBI-13. If no packets are shown the sender has not sent any weather packets the latest 10 day(s).
| Time | Temp. | Humidity | Pressure | Rain* | Wind** | Luminosity | Snow |
|---|---|---|---|---|---|---|---|
| 1788465392 | 26.67° C | 75% | 991.7 hPa | 0 mm | - | - | - |
| 1788464792 | 27.22° C | 76% | 991.6 hPa | 0 mm | - | - | - |
| 1788464192 | 26.67° C | 78% | 991.8 hPa | 0 mm | - | - | - |
| 1788463592 | 25.56° C | 80% | 992.2 hPa | 0 mm | - | - | - |
| 1788462992 | 25.56° C | 79% | 992 hPa | 0 mm | - | - | - |
| 1788462392 | 25.56° C | 78% | 992 hPa | 0 mm | - | - | - |
| 1788461792 | 26.11° C | 77% | 992 hPa | 0 mm | - | - | - |
| 1788461192 | 26.11° C | 78% | 992.2 hPa | 0 mm | - | - | - |
| 1788460592 | 26.11° C | 78% | 992.3 hPa | 0 mm | - | - | - |
| 1788459992 | 25.56° C | 80% | 992.3 hPa | 0 mm | - | - | - |
| 1788459392 | 25° C | 83% | 992.5 hPa | 0 mm | - | - | - |
| 1788458792 | 24.44° C | 83% | 992.5 hPa | 0 mm | - | - | - |
| 1788458192 | 24.44° C | 83% | 992.9 hPa | 0 mm | - | - | - |
| 1788457592 | 25° C | 85% | 992.5 hPa | 0 mm | - | - | - |
| 1788456992 | 23.89° C | 86% | 992.7 hPa | 0 mm | - | - | - |
| 1788456407 | 23.89° C | 87% | 992.6 hPa | 0 mm | - | - | - |
| 1788455792 | 23.89° C | 87% | 992.8 hPa | 0 mm | - | - | - |
| 1788455192 | 23.89° C | 87% | 992.9 hPa | 0 mm | - | - | - |
| 1788454592 | 24.44° C | 88% | 992.9 hPa | 0 mm | - | - | - |
| 1788453992 | 24.44° C | 89% | 992.9 hPa | 0 mm | - | - | - |
| 1788453409 | 23.89° C | 90% | 992.7 hPa | 0 mm | - | - | - |
| 1788452792 | 23.89° C | 91% | 992.6 hPa | 0 mm | - | - | - |
| 1788452192 | 23.89° C | 93% | 992.9 hPa | 0 mm | - | - | - |
| 1788451592 | 23.33° C | 94% | 992.7 hPa | 0 mm | - | - | - |
| 1788450992 | 22.78° C | 95% | 992.9 hPa | 0 mm | - | - | - |
* Rain latest hour (hover to see other rain measurements)
** Current wind speed in m/s (hover to see current wind gust speed)